Regional Weather Roundup
Issued by NWS

Home | Current Version | Previous Version | Text Only | Print | Product List | Glossary On
Versions: 1 2 3 4 5 6 7 8 9 10 11 12 13 14 15 16 17 18 19 20 21 22 23 24 25 26 27 28 29 30 31 32 33 34 35 36 37 38 39 40 41 42 43 44 45 46 47 48 49 50
000
ASUS45 KREV 290510
RWRNV
NEVADA REGIONAL WEATHER ROUNDUP
NATIONAL WEATHER SERVICE RENO NV
1000 PM PDT THU MAY 28 2015

NOTE: "FAIR" INDICATES FEW OR NO CLOUDS BELOW 12,000 FEET WITH NO
SIGNIFICANT WEATHER AND/OR OBSTRUCTIONS TO VISIBILITY.

NVZ001-003-004-290600-
WESTERN NEVADA

CITY           SKY/WX    TMP DP  RH WIND       PRES   REMARKS
RENO           PTCLDY    73  42  32 N8        30.08R
CARSON CITY    FAIR      70  32  24 N9        30.09R
MINDEN         FAIR      50  37  62 E5        30.10
SLIDE MTN        N/A     50  32  50 NE7         N/A
FALLON         NOT AVBL
LOVELOCK       PTCLDY    68  42  38 NE8       30.04R
HAWTHORNE      CLEAR     72  34  25 CALM      30.05R
$$

NVZ002-CAZ072-073-290600-
NORTHERN AND CENTRAL SIERRA

CITY           SKY/WX    TMP DP  RH WIND       PRES   REMARKS
S. LAKE TAHOE  CLEAR     54  40  59 CALM      30.20R
TRUCKEE        CLEAR     48  41  76 S3        30.19R
SQUAW VLY 8000   N/A     52  27  37 SW9         N/A
SUSANVILLE     CLEAR     66  46  48 W6        30.07
BLUE CANYON    CLEAR     61  38  42 CALM      30.17R
MAMMOTH LAKES  FAIR      57  30  35 W7        30.23R
BRIDGEPORT     FAIR      55  34  45 VRB3      30.20R
$$

NVZ030-031-036-290600-
NORTHERN NEVADA

CITY           SKY/WX    TMP DP  RH WIND       PRES   REMARKS
ELKO           CLEAR     60  42  51 E3        30.14R
WINNEMUCCA     CLEAR     63  42  46 NE8       30.09R
WENDOVER       PTCLDY    64  50  59 NE14      30.15R
$$

NVZ035-037-290600-
CENTRAL NEVADA

CITY           SKY/WX    TMP DP  RH WIND       PRES   REMARKS
ELY            PTCLDY    51  42  71 S8        30.19R
EUREKA           N/A     56  40  55 E3        30.17R
$$

NVZ013-014-290600-
SOUTH CENTRAL NEVADA

CITY           SKY/WX    TMP DP  RH WIND       PRES   REMARKS
TONOPAH        PTCLDY    67  20  16 NE9       30.10R
$$

NVZ017-020-022-290600-
SOUTHERN NEVADA

CITY           SKY/WX    TMP DP  RH WIND       PRES   REMARKS
LAS VEGAS      CLOUDY    89  27  10 SW9       29.83R
N. LAS VEGAS   CLOUDY    89  25  10 SW8       29.86R
NELLIS AFB     CLOUDY    90  29  11 S14       29.84R
HENDERSON      CLOUDY    85  33  15 S8        29.91R
MERCURY        CLOUDY    81  26  13 CALM      29.94R
$$


USA.gov is the U.S. government's official web portal to all federal, state and local government web resources and services.